Navig8 Saiph — V7SU2 — position and weather

sailwx.info

Track history (hours):
 
Tides and Currents Weather Stations Pressure Air Temp Water Temp Dewpoint Dewpoint Depression Visibility Wind Speed Wind Dir Waves Ship Positions

Navig8 Saiph

Last reported at 2018-Feb-23 22:43 UTC. Time now 2018-Feb-24 02:42 UTC.
Position N 26°08' W 079°29'.

Length 153 m; draft 6.9 m.

Type: Tanker. MMSI: 538006894.

Date/timePositionNaut miles runAvg speedWind from/ knotsBaromVisibWave heightAir tempDewpointWater temp
2018-Feb-23 22:43N 26°08' W 079°29'312.8
2018-Feb-23 22:30N 26°11' W 079°27'714.4
2018-Feb-23 22:00N 26°15' W 079°21'  
2018-Feb-16 08:51N 37°34' W 029°60'514.1
2018-Feb-16 08:30N 37°35' W 029°54'714.2
2018-Feb-16 08:00N 37°37' W 029°45'814.4
2018-Feb-16 07:26N 37°40' W 029°35'614.3
2018-Feb-16 07:00N 37°42' W 029°28'714.7
2018-Feb-16 06:31N 37°44' W 029°19'714.4
2018-Feb-16 06:00N 37°46' W 029°10'714.4
2018-Feb-16 05:30N 37°48' W 029°02'714.4
2018-Feb-16 05:00N 37°50' W 028°53'714.6
2018-Feb-16 04:30N 37°52' W 028°44'714.5
2018-Feb-16 04:00N 37°54' W 028°35'714.3
2018-Feb-16 03:30N 37°56' W 028°27'714.4
2018-Feb-16 03:01N 37°59' W 028°18'714.8
2018-Feb-16 02:30N 38°01' W 028°09'714.7
2018-Feb-16 02:00N 38°03' W 028°00'714.7
2018-Feb-16 01:30N 38°04' W 027°51'714.3
2018-Feb-16 01:00N 38°06' W 027°42'714.6
2018-Feb-16 00:31N 38°08' W 027°33'714.4
2018-Feb-16 00:00N 38°10' W 027°25'714.4
2018-Feb-15 23:30N 38°13' W 027°16'714.7
2018-Feb-15 23:00N 38°15' W 027°07'714.6
2018-Feb-15 22:30N 38°17' W 026°58'714.7
2018-Feb-15 22:00N 38°19' W 026°49'814.8
2018-Feb-15 21:29N 38°21' W 026°39'714.6
2018-Feb-15 21:00N 38°23' W 026°31'714.7
2018-Feb-15 20:30N 38°25' W 026°22'714.7
2018-Feb-15 20:00N 38°27' W 026°13'1714.5
2018-Feb-15 18:52N 38°32' W 025°53'614.2
2018-Feb-15 18:25N 38°34' W 025°45'614.0
2018-Feb-15 18:00N 38°36' W 025°38'714.1
2018-Feb-15 17:31N 38°39' W 025°30'814.2
2018-Feb-15 16:59N 38°41' W 025°21'714.1
2018-Feb-15 16:29N 38°43' W 025°12'714.0
2018-Feb-15 16:00N 38°45' W 025°04'714.0
2018-Feb-15 15:30N 38°47' W 024°55'714.2
2018-Feb-15 15:00N 38°49' W 024°46'714.1
2018-Feb-15 14:30N 38°51' W 024°38'  
Track history (hours):
 
Tides and Currents Weather Stations Pressure Air Temp Water Temp Dewpoint Dewpoint Depression Visibility Wind Speed Wind Dir Waves Ship Positions

Navig8 Saiph

Last reported at 2018-Feb-23 22:43 UTC. Time now 2018-Feb-24 02:42 UTC.
Position N 26°08' W 079°29'.

Length 153 m; draft 6.9 m.

Type: Tanker. MMSI: 538006894.

Date/timePositionNaut miles runAvg speedWind from/ knotsBaromVisibWave heightAir tempDewpointWater temp
2018-Feb-23 22:43N 26°08' W 079°29'312.8
2018-Feb-23 22:30N 26°11' W 079°27'714.4
2018-Feb-23 22:00N 26°15' W 079°21'  
2018-Feb-16 08:51N 37°34' W 029°60'514.1
2018-Feb-16 08:30N 37°35' W 029°54'714.2
2018-Feb-16 08:00N 37°37' W 029°45'814.4
2018-Feb-16 07:26N 37°40' W 029°35'614.3
2018-Feb-16 07:00N 37°42' W 029°28'714.7
2018-Feb-16 06:31N 37°44' W 029°19'714.4
2018-Feb-16 06:00N 37°46' W 029°10'714.4
2018-Feb-16 05:30N 37°48' W 029°02'714.4
2018-Feb-16 05:00N 37°50' W 028°53'714.6
2018-Feb-16 04:30N 37°52' W 028°44'714.5
2018-Feb-16 04:00N 37°54' W 028°35'714.3
2018-Feb-16 03:30N 37°56' W 028°27'714.4
2018-Feb-16 03:01N 37°59' W 028°18'714.8
2018-Feb-16 02:30N 38°01' W 028°09'714.7
2018-Feb-16 02:00N 38°03' W 028°00'714.7
2018-Feb-16 01:30N 38°04' W 027°51'714.3
2018-Feb-16 01:00N 38°06' W 027°42'714.6
2018-Feb-16 00:31N 38°08' W 027°33'714.4
2018-Feb-16 00:00N 38°10' W 027°25'714.4
2018-Feb-15 23:30N 38°13' W 027°16'714.7
2018-Feb-15 23:00N 38°15' W 027°07'714.6
2018-Feb-15 22:30N 38°17' W 026°58'714.7
2018-Feb-15 22:00N 38°19' W 026°49'814.8
2018-Feb-15 21:29N 38°21' W 026°39'714.6
2018-Feb-15 21:00N 38°23' W 026°31'714.7
2018-Feb-15 20:30N 38°25' W 026°22'714.7
2018-Feb-15 20:00N 38°27' W 026°13'1714.5
2018-Feb-15 18:52N 38°32' W 025°53'614.2
2018-Feb-15 18:25N 38°34' W 025°45'614.0
2018-Feb-15 18:00N 38°36' W 025°38'714.1
2018-Feb-15 17:31N 38°39' W 025°30'814.2
2018-Feb-15 16:59N 38°41' W 025°21'714.1
2018-Feb-15 16:29N 38°43' W 025°12'714.0
2018-Feb-15 16:00N 38°45' W 025°04'714.0
2018-Feb-15 15:30N 38°47' W 024°55'714.2
2018-Feb-15 15:00N 38°49' W 024°46'714.1
2018-Feb-15 14:30N 38°51' W 024°38'  

Dump ship's entire track history